Wind_Speed
3 3 4 5 5 5 6 7 7 7 7 7 7 7 7 7 6 6 5 6 6 6 5 5 4 4 3 3 3 3 2 2 1 1 1 1 1 1 2 2 2 3 3
3 3 4 4 4 5 6 6 6 7 7 6 6 6 6 6 5 5 5 5 5 5 5 4 4 3 3 3 2 2 1 0 1 1 1 2 2 2 2 2 2 2 3
3 3 3 3 4 5 5 6 6 6 6 6 6 6 5 5 5 6 6 5 5 5 4 4 3 3 2 3 2 2 2 3 2 2 2 2 2 3 2 2 2 2 2
3 3 4 3 4 5 5 5 5 5 5 5 5 6 6 5 6 6 6 5 5 4 4 3 3 2 2 2 3 3 3 4 3 2 2 2 3 4 3 3 2 3 2
3 4 4 4 4 5 6 5 5 5 5 5 5 5 6 5 5 5 5 5 4 3 3 3 3 2 2 2 3 3 3 4 3 3 3 3 2 2 3 2 2 3 3
3 3 4 4 4 5 5 5 5 5 4 4 4 5 5 5 5 4 5 4 4 3 3 2 2 2 2 3 3 3 3 4 5 4 3 2 1 2 2 3 2 3 4
3 4 4 4 5 5 5 4 5 4 4 4 4 4 4 4 4 4 4 4 4 3 3 3 3 2 3 3 4 4 5 5 5 5 4 2 2 3 3 3 3 3 4
4 5 5 5 5 5 4 4 4 4 4 4 3 3 4 3 3 4 4 3 3 3 3 3 3 3 3 4 4 5 6 6 6 5 5 3 3 3 3 3 3 4 5
5 4 5 5 4 3 3 3 3 3 3 3 4 3 3 3 3 3 3 3 4 4 4 4 3 3 3 4 4 5 6 7 6 5 4 3 3 3 3 4 4 4 5
4 4 5 5 4 3 3 3 2 3 3 3 3 3 2 2 2 3 3 2 3 3 3 3 3 3 4 4 4 5 6 6 5 5 4 4 3 3 4 4 4 5 4
4 5 5 4 4 4 3 3 3 2 2 2 2 2 2 2 2 2 2 2 2 2 3 3 3 4 4 4 4 5 5 5 5 4 4 4 3 4 4 4 5 5 5
6 5 5 4 4 3 3 4 3 3 2 2 2 2 2 1 1 2 3 3 3 3 3 3 3 4 4 4 4 5 5 5 5 4 5 4 4 4 4 4 5 5 5
6 6 5 5 4 4 4 4 4 3 2 2 2 2 2 2 2 2 3 3 3 3 3 3 4 4 5 4 4 5 5 6 6 6 6 5 4 4 4 5 5 5 6
7 7 6 5 5 4 4 4 3 3 3 2 2 2 2 2 3 3 3 3 3 3 3 4 4 5 5 5 6 6 6 7 6 6 5 6 6 5 5 5 6 6 6
8 7 7 6 5 4 4 4 3 3 3 2 2 3 3 3 3 3 3 4 4 4 4 4 4 5 6 6 6 7 7 7 7 6 6 7 7 7 7 7 7 7 6
8 7 7 6 6 5 4 4 5 4 4 3 3 3 4 3 3 3 3 4 4 4 4 4 4 5 6 6 6 6 7 7 8 8 7 7 8 8 8 8 8 8 7
7 7 7 7 6 6 6 6 6 6 5 4 4 4 4 4 4 4 3 4 4 5 4 5 5 5 5 6 6 6 7 8 8 9 8 8 8 8 9 9 8 8 8
7 7 6 7 7 6 6 6 6 6 5 5 5 4 4 4 4 4 3 4 4 4 4 5 5 5 6 6 6 6 7 7 8 9 9 9 9 9 9 9 9 9 9
7 6 6 6 6 6 6 6 6 6 6 6 5 4 4 4 4 4 4 4 4 4 4 4 4 5 6 6 6 7 7 7 8 8 10 10 10 10 10 10 10 10 9
7 6 6 6 6 6 6 6 6 7 7 6 5 5 4 4 4 4 5 5 4 5 4 4 4 5 6 6 6 7 8 8 8 9 10 10 11 11 11 11 10 10 10
6 6 6 6 5 5 6 5 6 6 6 6 6 5 4 5 4 4 4 4 4 5 5 4 5 6 6 6 7 8 8 8 9 9 9 10 11 11 11 11 11 10 10
5 5 5 5 5 5 5 5 5 5 5 5 5 5 5 5 4 4 4 4 4 5 5 5 6 6 7 7 7 8 8 9 10 10 10 11 11 11 11 12 11 11 10
5 5 5 5 5 4 4 4 4 4 5 5 5 5 5 6 6 6 6 6 5 5 5 6 7 7 7 8 8 9 10 10 10 11 11 11 11 11 11 12 12 12 11
4 4 4 4 4 3 4 4 4 4 5 5 5 5 5 6 6 6 6 6 6 6 6 7 8 8 8 9 9 10 10 11 11 11 12 12 11 12 12 12 13 13 12
4 4 5 4 4 3 3 4 5 5 5 5 5 5 5 5 6 6 6 6 6 7 7 7 8 8 9 9 10 10 11 12 12 13 13 13 13 13 13 13 13 13 13
4 4 5 5 4 3 4 4 5 5 5 5 5 5 6 6 6 6 5 6 6 6 7 7 8 8 9 9 10 11 11 12 12 13 14 14 14 14 13 13 13 13 13
Wind_Direction
136 144 147 147 146 147 149 154 151 143 145 150 151 147 140 139 136 134 139 137 131 123 111 99 92 84 76 80 88 94 112 132 153 167 199 268 277 269 267 286 281 262 272
171 172 168 155 146 145 152 153 153 150 148 148 152 151 149 149 141 136 139 139 133 125 108 95 85 82 67 57 55 54 43 261 274 265 281 291 304 301 291 286 276 265 274
190 194 184 170 158 146 146 149 147 154 153 149 150 146 144 143 141 139 137 137 132 122 105 94 82 79 62 48 49 34 352 345 323 301 289 301 306 298 291 280 269 260 269
190 187 171 157 157 159 154 148 143 150 155 147 149 146 139 137 141 142 140 129 125 115 102 88 73 67 52 36 32 23 6 355 344 333 321 309 283 285 285 288 279 282 277
172 169 161 152 154 154 152 148 145 147 157 151 148 146 138 138 139 133 131 122 122 115 101 85 61 52 40 35 30 16 7 3 355 342 311 305 303 308 317 318 307 289 291
144 149 156 153 154 154 152 150 150 146 155 154 150 145 133 135 141 129 129 123 123 119 102 85 64 61 57 50 35 22 14 13 10 7 351 324 339 4 359 349 326 299 305
134 128 137 142 147 149 142 139 143 145 155 157 149 143 135 137 131 136 136 132 128 114 97 77 62 52 56 39 35 30 27 17 14 25 41 41 23 13 8 1 340 316 306
130 128 134 138 140 137 133 134 138 143 152 154 149 149 143 132 123 125 127 125 115 97 75 62 48 37 35 36 32 22 15 16 16 25 41 35 23 6 349 339 333 320 312
120 123 123 128 133 137 132 140 142 143 152 150 147 148 144 126 111 104 107 101 89 81 71 59 43 33 26 32 25 17 12 12 21 29 32 25 11 354 344 344 331 324 316
110 106 113 120 122 119 124 128 134 135 150 152 145 150 146 130 109 100 102 95 83 78 68 50 36 28 20 18 15 19 19 15 16 20 25 23 16 2 353 349 336 322 318
98 100 105 107 107 109 110 107 98 111 160 166 150 146 140 128 120 104 110 98 77 72 58 41 41 30 19 11 15 23 24 16 18 20 27 20 9 358 350 342 339 334 327
90 97 98 103 104 93 85 88 85 88 123 164 152 123 111 110 100 96 103 93 72 55 46 38 37 35 24 24 27 25 22 16 10 14 12 8 6 357 348 345 337 330 325
83 91 90 90 96 96 85 89 87 82 99 113 124 113 103 101 98 88 89 78 65 55 40 28 28 32 30 25 22 19 19 17 14 4 6 9 12 8 4 347 331 329 325
83 87 83 83 83 91 85 92 84 74 86 96 97 95 87 95 102 95 81 59 50 46 40 33 28 32 37 32 26 19 22 18 20 18 11 7 8 6 3 351 337 333 330
82 83 77 74 71 80 85 82 70 71 81 93 90 74 74 91 103 94 65 57 50 43 40 34 31 39 41 33 28 24 24 17 18 18 15 8 2 358 350 344 337 331 328
69 69 70 70 63 69 75 68 58 65 70 79 82 84 90 92 89 84 68 54 47 40 35 35 30 36 34 29 23 19 14 11 13 11 4 3 359 353 345 340 338 332 327
63 61 62 63 62 65 64 61 60 66 71 76 78 85 87 78 82 82 68 61 47 35 35 37 29 28 20 18 15 12 11 9 11 8 2 356 353 350 347 345 340 336 331
62 62 62 63 63 63 60 57 58 63 64 68 71 72 70 68 69 65 59 49 34 31 35 35 23 19 16 11 10 7 4 2 4 6 2 355 351 347 345 345 343 338 333
58 59 62 64 64 61 57 56 56 58 67 69 66 62 61 61 59 49 42 39 30 26 28 30 24 14 9 9 7 3 0 358 358 358 358 356 350 344 342 342 341 337 334
55 58 62 62 58 51 50 56 58 56 62 65 61 61 62 57 53 47 41 40 37 29 28 14 5 0 1 2 0 356 356 353 354 352 352 351 350 347 343 341 340 338 336
51 54 58 56 48 42 46 53 56 55 55 57 56 53 50 43 45 41 34 31 24 19 19 4 352 353 351 352 349 350 355 355 356 352 350 349 349 348 346 343 339 337 336
47 45 45 47 44 42 44 49 50 51 49 49 49 48 43 34 31 25 19 14 10 14 7 358 353 353 359 355 351 352 352 353 356 354 352 351 350 350 352 349 344 341 338
37 36 30 29 26 31 33 38 36 37 39 44 44 42 38 35 33 29 28 25 22 16 13 10 5 1 358 355 351 354 358 357 355 353 352 351 350 351 352 352 350 346 343
23 19 14 15 12 26 28 25 25 28 30 34 35 33 34 35 32 26 25 26 24 18 13 11 11 10 5 1 360 358 358 356 356 352 349 347 345 345 345 349 352 349 346
11 17 11 0 2 16 16 12 13 17 22 26 26 24 24 22 22 19 19 16 16 13 9 5 3 2 1 360 360 358 355 352 350 349 350 349 347 346 344 347 349 350 351
355 359 356 344 345 349 352 353 356 359 3 9 10 7 3 1 4 3 6 6 4 2 358 353 351 349 349 350 351 350 350 350 349 349 349 347 345 344 340 341 343 342 346
Height
5877 5876 5877 5878 5878 5879 5879 5880 5881 5881 5883 5883 5884 5884 5885 5886 5886 5887 5887 5888 5888 5889 5889 5889 5890 5890 5890 5890 5890 5890 5890 5890 5890 5890 5891 5892 5892 5892 5892 5893 5893 5894 5894
5878 5878 5878 5878 5879 5880 5880 5881 5882 5883 5884 5884 5885 5885 5886 5886 5887 5888 5888 5889 5890 5890 5890 5890 5891 5891 5891 5891 5890 5890 5890 5890 5890 5890 5891 5891 5892 5892 5892 5893 5893 5893 5893
5878 5879 5879 5880 5880 5881 5882 5882 5883 5884 5884 5885 5886 5886 5887 5888 5888 5889 5889 5890 5890 5891 5891 5891 5892 5892 5892 5892 5891 5891 5891 5890 5889 5890 5890 5891 5891 5892 5892 5892 5893 5893 5893
5879 5879 5880 5881 5881 5882 5883 5883 5884 5885 5886 5886 5887 5887 5888 5889 5889 5889 5890 5891 5891 5892 5892 5892 5893 5893 5892 5892 5892 5891 5891 5890 5889 5889 5889 5890 5891 5891 5892 5892 5892 5892 5893
5879 5879 5880 5881 5882 5883 5883 5884 5885 5886 5886 5887 5888 5889 5889 5890 5890 5891 5891 5892 5892 5893 5893 5893 5893 5893 5893 5893 5892 5892 5891 5890 5890 5888 5888 5889 5890 5890 5891 5891 5891 5892 5892
5880 5880 5881 5882 5883 5884 5884 5885 5886 5887 5887 5888 5889 5890 5890 5891 5891 5892 5892 5892 5893 5893 5894 5894 5894 5894 5894 5893 5893 5892 5891 5891 5890 5888 5887 5888 5889 5890 5891 5891 5891 5891 5892
5881 5881 5882 5883 5883 5884 5885 5886 5887 5888 5888 5889 5890 5891 5891 5891 5892 5892 5893 5893 5894 5894 5894 5894 5894 5894 5894 5894 5893 5892 5892 5891 5890 5889 5888 5888 5890 5891 5891 5891 5891 5891 5891
5882 5883 5883 5884 5885 5885 5886 5887 5888 5888 5889 5890 5891 5891 5892 5892 5893 5893 5894 5894 5894 5895 5895 5895 5895 5895 5894 5894 5893 5893 5892 5892 5891 5890 5890 5890 5891 5891 5891 5891 5891 5891 5891
5883 5884 5884 5885 5886 5887 5887 5888 5889 5889 5890 5891 5891 5892 5893 5893 5894 5894 5894 5895 5895 5895 5896 5896 5896 5895 5895 5894 5894 5894 5893 5892 5892 5891 5891 5891 5891 5891 5891 5891 5891 5890 5890
5884 5885 5886 5886 5887 5887 5888 5889 5890 5890 5891 5891 5892 5893 5893 5894 5895 5895 5895 5896 5896 5896 5896 5896 5896 5896 5895 5895 5895 5894 5893 5893 5892 5892 5892 5892 5891 5891 5891 5890 5890 5890 5890
5886 5886 5887 5887 5888 5889 5889 5890 5891 5891 5892 5892 5893 5894 5894 5895 5895 5896 5896 5897 5897 5897 5897 5897 5897 5896 5895 5895 5895 5894 5894 5894 5893 5893 5892 5892 5892 5891 5891 5890 5890 5889 5889
5887 5888 5888 5889 5889 5890 5891 5891 5892 5892 5892 5893 5894 5894 5895 5896 5896 5896 5897 5897 5897 5897 5897 5897 5897 5896 5896 5895 5895 5895 5894 5894 5893 5893 5892 5892 5891 5891 5890 5890 5889 5889 5888
5889 5889 5890 5891 5891 5892 5893 5893 5893 5893 5893 5894 5895 5895 5896 5897 5897 5897 5898 5898 5898 5898 5898 5898 5897 5897 5896 5896 5895 5895 5895 5894 5894 5893 5892 5892 5891 5891 5890 5889 5888 5888 5887
5892 5892 5893 5893 5893 5894 5894 5894 5895 5895 5895 5895 5896 5896 5897 5897 5898 5898 5899 5899 5899 5899 5899 5898 5898 5897 5897 5896 5896 5895 5895 5894 5894 5893 5892 5892 5891 5890 5890 5889 5888 5887 5886
5895 5895 5895 5895 5895 5895 5896 5896 5896 5896 5896 5896 5897 5897 5897 5898 5899 5899 5900 5900 5900 5900 5899 5899 5898 5898 5897 5897 5896 5896 5895 5895 5894 5893 5892 5892 5891 5890 5890 5889 5888 5887 5886
5898 5898 5898 5898 5898 5898 5898 5898 5898 5897 5897 5897 5898 5898 5898 5899 5900 5900 5900 5901 5900 5900 5900 5900 5899 5898 5898 5897 5897 5896 5896 5895 5894 5893 5893 5892 5891 5890 5889 5888 5887 5886 5885
5901 5901 5901 5900 5900 5900 5900 5900 5899 5899 5899 5899 5899 5899 5899 5900 5901 5901 5901 5901 5902 5901 5901 5900 5900 5899 5899 5898 5897 5897 5896 5895 5894 5893 5892 5891 5891 5890 5889 5887 5886 5885 5884
5903 5903 5903 5903 5902 5902 5902 5902 5901 5901 5901 5901 5900 5900 5901 5901 5902 5902 5902 5902 5902 5902 5902 5901 5900 5900 5899 5899 5898 5897 5897 5896 5894 5893 5893 5892 5891 5889 5888 5887 5885 5884 5883
5906 5905 5905 5905 5905 5904 5904 5904 5903 5903 5902 5902 5902 5902 5902 5903 5903 5903 5903 5903 5902 5902 5902 5902 5901 5901 5900 5899 5898 5898 5897 5896 5895 5893 5892 5891 5890 5889 5887 5886 5884 5883 5882
5908 5907 5907 5907 5907 5906 5906 5906 5905 5905 5904 5904 5904 5904 5904 5904 5904 5904 5904 5904 5904 5904 5903 5902 5902 5901 5901 5900 5899 5898 5897 5896 5895 5894 5892 5891 5890 5889 5887 5885 5884 5882 5881
5910 5909 5909 5909 5909 5908 5908 5908 5907 5907 5906 5906 5906 5905 5905 5905 5905 5905 5905 5905 5904 5904 5904 5903 5902 5902 5901 5900 5899 5898 5897 5896 5895 5894 5893 5891 5890 5888 5886 5885 5883 5881 5880
5911 5911 5911 5911 5910 5910 5910 5909 5909 5908 5908 5908 5907 5907 5906 5906 5906 5906 5906 5905 5905 5905 5904 5904 5903 5902 5901 5900 5900 5899 5897 5897 5895 5893 5892 5891 5889 5887 5885 5884 5882 5880 5879
5913 5912 5912 5912 5912 5911 5911 5911 5910 5910 5909 5909 5908 5908 5908 5907 5907 5907 5906 5906 5906 5905 5905 5904 5903 5902 5901 5900 5899 5899 5897 5896 5894 5893 5892 5890 5888 5887 5885 5883 5881 5879 5878
5914 5913 5913 5913 5912 5912 5912 5912 5911 5911 5910 5910 5909 5909 5909 5908 5908 5908 5907 5907 5906 5906 5905 5905 5904 5903 5902 5900 5899 5898 5897 5895 5894 5893 5891 5890 5888 5886 5884 5882 5880 5879 5877
5914 5914 5914 5914 5913 5913 5913 5912 5912 5912 5911 5911 5911 5910 5910 5909 5909 5909 5908 5907 5907 5906 5905 5904 5904 5903 5902 5900 5899 5898 5897 5895 5893 5892 5890 5889 5887 5885 5883 5881 5880 5878 5876
5915 5915 5915 5914 5914 5913 5913 5913 5912 5912 5912 5912 5911 5911 5910 5910 5909 5909 5908 5908 5907 5906 5905 5904 5903 5902 5901 5900 5899 5898 5896 5894 5893 5891 5889 5888 5886 5884 5882 5880 5878 5875 5873